Time,TemperatureF,DewpointF,PressureIn,WindDirection,WindDirectionDegrees,WindSpeedMPH,WindSpeedGustMPH,Humidity,HourlyPrecipIn,Conditions,Clouds,dailyrainin,SoftwareType,DateUTC
2013-08-04 00:03:00,44.4,42.5,30.08,West,279,4.0,4.0,93,0.00,,---,0.00,VWS V14.01,2013-08-04 06:03:00,
2013-08-04 00:08:00,44.6,43.0,30.08,West,279,0.0,1.0,94,0.00,,---,0.00,VWS V14.01,2013-08-04 06:08:00,
2013-08-04 00:13:00,44.6,42.7,30.08,West,279,3.0,3.0,93,0.00,,---,0.00,VWS V14.01,2013-08-04 06:13:00,
2013-08-04 00:18:00,44.6,42.7,30.08,West,279,3.0,4.0,93,0.00,,---,0.00,VWS V14.01,2013-08-04 06:18:00,
2013-08-04 00:23:00,44.7,42.8,30.08,West,279,1.0,1.0,93,0.00,,---,0.00,VWS V14.01,2013-08-04 06:23:00,
2013-08-04 00:28:00,44.6,42.7,30.08,West,279,0.0,0.0,93,0.00,,---,0.00,VWS V14.01,2013-08-04 06:28:00,
2013-08-04 00:33:00,44.7,42.8,30.08,West,279,0.0,0.0,93,0.00,,---,0.00,VWS V14.01,2013-08-04 06:33:00,
2013-08-04 00:38:00,44.6,42.7,30.08,West,279,2.0,2.0,93,0.00,,---,0.00,VWS V14.01,2013-08-04 06:38:00,
2013-08-04 00:43:00,44.1,41.9,30.08,West,279,3.0,3.0,92,0.00,,---,0.00,VWS V14.01,2013-08-04 06:43:00,
2013-08-04 00:48:00,43.6,41.4,30.08,West,279,4.0,5.0,92,0.00,,---,0.00,VWS V14.01,2013-08-04 06:48:00,
2013-08-04 00:53:00,43.3,41.4,30.08,West,279,3.0,4.0,93,0.00,,---,0.00,VWS V14.01,2013-08-04 06:53:00,
2013-08-04 00:58:00,43.1,41.2,30.08,West,279,0.0,0.0,93,0.00,,---,0.00,VWS V14.01,2013-08-04 06:58:00,
2013-08-04 01:03:00,42.9,41.0,30.08,West,279,2.0,3.0,93,0.00,,---,0.00,VWS V14.01,2013-08-04 07:03:00,
2013-08-04 01:08:00,42.7,40.8,30.08,West,279,2.0,3.0,93,0.00,,---,0.00,VWS V14.01,2013-08-04 07:08:00,
2013-08-04 01:13:00,42.7,40.8,30.08,West,279,5.0,6.0,93,0.00,,---,0.00,VWS V14.01,2013-08-04 07:13:00,
2013-08-04 01:18:00,42.8,40.9,30.08,West,279,4.0,4.0,93,0.00,,---,0.00,VWS V14.01,2013-08-04 07:18:00,
2013-08-04 01:23:00,43.1,41.5,30.08,West,279,5.0,5.0,94,0.00,,---,0.00,VWS V14.01,2013-08-04 07:23:00,
2013-08-04 01:28:00,43.2,41.6,30.08,West,279,0.0,0.0,94,0.00,,---,0.00,VWS V14.01,2013-08-04 07:28:00,
2013-08-04 01:33:00,43.2,41.6,30.08,West,279,1.0,1.0,94,0.00,,---,0.00,VWS V14.01,2013-08-04 07:33:00,
2013-08-04 01:38:00,43.1,41.5,30.08,West,279,0.0,0.0,94,0.00,,---,0.00,VWS V14.01,2013-08-04 07:38:00,
2013-08-04 01:43:00,43.1,41.5,30.09,West,279,0.0,0.0,94,0.00,,---,0.00,VWS V14.01,2013-08-04 07:43:00,
2013-08-04 01:49:00,43.1,41.5,30.09,West,279,1.0,1.0,94,0.00,,---,0.00,VWS V14.01,2013-08-04 07:49:00,
2013-08-04 01:53:00,43.1,41.5,30.09,West,279,0.0,1.0,94,0.00,,---,0.00,VWS V14.01,2013-08-04 07:53:00,
2013-08-04 01:59:00,43.0,41.1,30.09,West,279,2.0,3.0,93,0.00,,---,0.00,VWS V14.01,2013-08-04 07:59:00,
2013-08-04 02:04:00,42.6,40.7,30.08,West,279,1.0,3.0,93,0.00,,---,0.00,VWS V14.01,2013-08-04 08:04:00,
2013-08-04 02:09:00,42.7,41.1,30.08,West,279,0.0,0.0,94,0.00,,---,0.00,VWS V14.01,2013-08-04 08:09:00,
2013-08-04 02:14:00,42.6,41.0,30.08,West,279,1.0,2.0,94,0.00,,---,0.00,VWS V14.01,2013-08-04 08:14:00,
2013-08-04 02:19:00,42.6,41.0,30.08,West,279,0.0,0.0,94,0.00,,---,0.00,VWS V14.01,2013-08-04 08:19:00,
2013-08-04 02:24:00,42.5,40.9,30.08,West,279,0.0,0.0,94,0.00,,---,0.00,VWS V14.01,2013-08-04 08:24:00,
2013-08-04 02:28:00,42.4,40.8,30.08,West,279,0.0,0.0,94,0.00,,---,0.00,VWS V14.01,2013-08-04 08:28:00,
2013-08-04 02:34:00,42.4,40.8,30.08,West,279,0.0,0.0,94,0.00,,---,0.00,VWS V14.01,2013-08-04 08:34:00,
2013-08-04 02:39:00,42.3,40.7,30.08,West,279,0.0,0.0,94,0.00,,---,0.00,VWS V14.01,2013-08-04 08:39:00,
2013-08-04 02:43:00,42.3,40.7,30.08,West,279,0.0,0.0,94,0.00,,---,0.00,VWS V14.01,2013-08-04 08:43:00,
2013-08-04 02:49:00,42.3,40.7,30.08,West,279,0.0,0.0,94,0.00,,---,0.00,VWS V14.01,2013-08-04 08:49:00,
2013-08-04 02:54:00,42.1,40.5,30.08,West,279,0.0,1.0,94,0.00,,---,0.00,VWS V14.01,2013-08-04 08:54:00,
2013-08-04 02:58:00,42.0,40.4,30.08,West,279,0.0,0.0,94,0.00,,---,0.00,VWS V14.01,2013-08-04 08:58:00,
2013-08-04 03:04:00,41.8,40.2,30.07,West,279,3.0,3.0,94,0.00,,---,0.00,VWS V14.01,2013-08-04 09:04:00,
2013-08-04 03:09:00,41.8,40.2,30.08,West,279,0.0,0.0,94,0.00,,---,0.00,VWS V14.01,2013-08-04 09:09:00,
2013-08-04 03:14:00,41.8,40.2,30.08,West,279,0.0,0.0,94,0.00,,---,0.00,VWS V14.01,2013-08-04 09:14:00,
2013-08-04 03:19:00,41.7,40.1,30.08,West,279,0.0,0.0,94,0.00,,---,0.00,VWS V14.01,2013-08-04 09:19:00,
2013-08-04 03:24:00,41.9,40.6,30.07,West,279,0.0,0.0,95,0.00,,---,0.00,VWS V14.01,2013-08-04 09:24:00,
2013-08-04 03:29:00,41.9,40.6,30.07,West,279,0.0,0.0,95,0.00,,---,0.00,VWS V14.01,2013-08-04 09:29:00,
2013-08-04 03:34:00,41.9,40.6,30.08,West,279,0.0,0.0,95,0.00,,---,0.00,VWS V14.01,2013-08-04 09:34:00,
2013-08-04 03:38:00,41.8,40.5,30.08,West,279,0.0,2.0,95,0.00,,---,0.00,VWS V14.01,2013-08-04 09:38:00,
2013-08-04 03:44:00,41.3,39.7,30.08,West,279,0.0,0.0,94,0.00,,---,0.00,VWS V14.01,2013-08-04 09:44:00,
2013-08-04 03:49:00,40.8,39.2,30.08,West,279,0.0,0.0,94,0.00,,---,0.00,VWS V14.01,2013-08-04 09:49:00,
2013-08-04 03:53:00,40.5,38.9,30.08,West,279,0.0,0.0,94,0.00,,---,0.00,VWS V14.01,2013-08-04 09:53:00,
2013-08-04 03:59:00,40.6,39.3,30.08,West,279,0.0,0.0,95,0.00,,---,0.00,VWS V14.01,2013-08-04 09:59:00,
2013-08-04 04:04:00,40.7,39.4,30.08,West,279,0.0,0.0,95,0.00,,---,0.00,VWS V14.01,2013-08-04 10:04:00,
2013-08-04 04:09:00,40.5,38.9,30.08,West,279,2.0,3.0,94,0.00,,---,0.00,VWS V14.01,2013-08-04 10:09:00,
2013-08-04 04:15:00,40.1,38.5,30.08,West,279,0.0,0.0,94,0.00,,---,0.00,VWS V14.01,2013-08-04 10:15:00,
2013-08-04 04:20:00,39.8,38.2,30.08,West,279,0.0,0.0,94,0.00,,---,0.00,VWS V14.01,2013-08-04 10:20:00,
2013-08-04 04:25:00,39.6,38.0,30.08,West,279,0.0,0.0,94,0.00,,---,0.00,VWS V14.01,2013-08-04 10:25:00,
2013-08-04 04:29:00,39.3,37.7,30.08,West,279,0.0,0.0,94,0.00,,---,0.00,VWS V14.01,2013-08-04 10:29:00,
2013-08-04 04:35:00,39.6,38.3,30.08,West,279,0.0,0.0,95,0.00,,---,0.00,VWS V14.01,2013-08-04 10:35:00,
2013-08-04 04:40:00,40.0,38.7,30.08,West,279,1.0,3.0,95,0.00,,---,0.00,VWS V14.01,2013-08-04 10:40:00,
2013-08-04 04:45:00,40.2,38.9,30.09,West,279,0.0,0.0,95,0.00,,---,0.00,VWS V14.01,2013-08-04 10:45:00,
2013-08-04 04:50:00,40.4,39.1,30.09,West,279,0.0,0.0,95,0.00,,---,0.00,VWS V14.01,2013-08-04 10:50:00,
2013-08-04 04:55:00,40.2,38.9,30.09,West,279,1.0,2.0,95,0.00,,---,0.00,VWS V14.01,2013-08-04 10:55:00,
2013-08-04 05:00:00,39.8,38.5,30.09,West,279,0.0,0.0,95,0.00,,---,0.00,VWS V14.01,2013-08-04 11:00:00,
2013-08-04 05:05:00,39.6,38.3,30.09,West,279,0.0,0.0,95,0.00,,---,0.00,VWS V14.01,2013-08-04 11:05:00,
2013-08-04 05:10:00,39.4,38.1,30.09,West,279,0.0,0.0,95,0.00,,---,0.00,VWS V14.01,2013-08-04 11:10:00,
2013-08-04 05:14:00,39.3,38.0,30.09,West,279,0.0,0.0,95,0.00,,---,0.00,VWS V14.01,2013-08-04 11:14:00,
2013-08-04 05:20:00,39.4,38.1,30.09,West,279,0.0,0.0,95,0.00,,---,0.00,VWS V14.01,2013-08-04 11:20:00,
2013-08-04 05:25:00,39.7,38.7,30.09,West,279,0.0,0.0,96,0.00,,---,0.00,VWS V14.01,2013-08-04 11:25:00,
2013-08-04 05:30:00,39.2,37.9,30.10,West,279,0.0,1.0,95,0.00,,---,0.00,VWS V14.01,2013-08-04 11:30:00,
2013-08-04 05:35:00,39.0,37.7,30.10,West,279,0.0,0.0,95,0.00,,---,0.00,VWS V14.01,2013-08-04 11:35:00,
2013-08-04 05:39:00,39.1,38.1,30.10,West,279,0.0,0.0,96,0.00,,---,0.00,VWS V14.01,2013-08-04 11:39:00,
2013-08-04 05:45:00,39.2,38.2,30.11,West,279,0.0,0.0,96,0.00,,---,0.00,VWS V14.01,2013-08-04 11:45:00,
2013-08-04 05:50:00,39.2,37.9,30.11,West,279,0.0,0.0,95,0.00,,---,0.00,VWS V14.01,2013-08-04 11:50:00,
2013-08-04 05:55:00,39.3,38.3,30.10,West,279,3.0,3.0,96,0.00,,---,0.00,VWS V14.01,2013-08-04 11:55:00,
2013-08-04 06:00:00,39.5,38.5,30.10,West,279,5.0,6.0,96,0.00,,---,0.00,VWS V14.01,2013-08-04 12:00:00,
2013-08-04 06:05:00,39.4,38.4,30.11,West,279,0.0,2.0,96,0.00,,---,0.00,VWS V14.01,2013-08-04 12:05:00,
2013-08-04 06:10:00,39.0,37.7,30.11,West,279,0.0,1.0,95,0.00,,---,0.00,VWS V14.01,2013-08-04 12:10:00,
2013-08-04 06:15:00,39.1,38.1,30.11,West,279,2.0,2.0,96,0.00,,---,0.00,VWS V14.01,2013-08-04 12:15:00,
2013-08-04 06:20:00,39.1,38.1,30.12,West,279,0.0,0.0,96,0.00,,---,0.00,VWS V14.01,2013-08-04 12:20:00,
2013-08-04 06:25:00,39.2,38.2,30.12,West,279,0.0,0.0,96,0.00,,---,0.00,VWS V14.01,2013-08-04 12:25:00,
2013-08-04 06:30:00,39.2,38.2,30.12,West,279,0.0,0.0,96,0.00,,---,0.00,VWS V14.01,2013-08-04 12:30:00,
2013-08-04 06:35:00,39.1,38.1,30.12,West,279,0.0,0.0,96,0.00,,---,0.00,VWS V14.01,2013-08-04 12:35:00,
2013-08-04 06:40:00,38.9,37.9,30.12,West,279,1.0,2.0,96,0.00,,---,0.00,VWS V14.01,2013-08-04 12:40:00,
2013-08-04 06:45:00,38.8,37.8,30.12,West,279,0.0,0.0,96,0.00,,---,0.00,VWS V14.01,2013-08-04 12:45:00,
2013-08-04 06:50:00,38.9,37.9,30.12,West,279,0.0,0.0,96,0.00,,---,0.00,VWS V14.01,2013-08-04 12:50:00,
2013-08-04 06:55:00,38.8,37.8,30.12,West,279,0.0,1.0,96,0.00,,---,0.00,VWS V14.01,2013-08-04 12:55:00,
2013-08-04 07:00:00,38.7,37.7,30.12,West,279,0.0,0.0,96,0.00,,---,0.00,VWS V14.01,2013-08-04 13:00:00,
2013-08-04 07:05:00,38.6,37.6,30.12,West,279,0.0,0.0,96,0.00,,---,0.00,VWS V14.01,2013-08-04 13:05:00,
2013-08-04 07:10:00,38.8,37.8,30.12,West,279,0.0,0.0,96,0.00,,---,0.00,VWS V14.01,2013-08-04 13:10:00,
2013-08-04 07:15:00,38.9,37.9,30.13,West,279,1.0,2.0,96,0.00,,---,0.00,VWS V14.01,2013-08-04 13:15:00,
2013-08-04 07:20:00,39.1,38.1,30.13,West,279,1.0,1.0,96,0.00,,---,0.00,VWS V14.01,2013-08-04 13:20:00,
2013-08-04 07:25:00,39.1,38.1,30.13,West,279,0.0,0.0,96,0.00,,---,0.00,VWS V14.01,2013-08-04 13:25:00,
2013-08-04 07:30:00,39.1,38.1,30.14,West,279,0.0,0.0,96,0.00,,---,0.00,VWS V14.01,2013-08-04 13:30:00,
2013-08-04 07:35:00,39.0,38.0,30.14,West,279,0.0,0.0,96,0.00,,---,0.00,VWS V14.01,2013-08-04 13:35:00,
2013-08-04 07:40:00,39.0,38.0,30.14,West,279,0.0,0.0,96,0.00,,---,0.00,VWS V14.01,2013-08-04 13:40:00,
2013-08-04 07:45:00,39.1,38.1,30.14,West,279,0.0,0.0,96,0.00,,---,0.00,VWS V14.01,2013-08-04 13:45:00,
2013-08-04 07:50:00,39.1,38.1,30.14,West,279,0.0,0.0,96,0.00,,---,0.00,VWS V14.01,2013-08-04 13:50:00,
2013-08-04 07:55:00,39.1,38.1,30.14,West,279,2.0,2.0,96,0.00,,---,0.00,VWS V14.01,2013-08-04 13:55:00,
2013-08-04 08:00:00,39.3,38.3,30.15,West,279,0.0,0.0,96,0.00,,---,0.00,VWS V14.01,2013-08-04 14:00:00,
2013-08-04 08:05:00,39.6,38.6,30.14,West,279,0.0,0.0,96,0.00,,---,0.00,VWS V14.01,2013-08-04 14:05:00,
2013-08-04 08:10:00,40.1,39.3,30.15,West,279,0.0,0.0,97,0.00,,---,0.00,VWS V14.01,2013-08-04 14:10:00,
2013-08-04 08:15:00,40.7,39.9,30.15,West,279,0.0,0.0,97,0.00,,---,0.00,VWS V14.01,2013-08-04 14:15:00,
2013-08-04 08:20:00,42.0,41.2,30.14,West,279,0.0,0.0,97,0.00,,---,0.00,VWS V14.01,2013-08-04 14:20:00,
2013-08-04 08:25:00,43.3,42.8,30.14,West,279,0.0,0.0,98,0.00,,---,0.00,VWS V14.01,2013-08-04 14:25:00,
2013-08-04 08:30:00,44.5,44.0,30.14,West,279,0.0,0.0,98,0.00,,---,0.00,VWS V14.01,2013-08-04 14:30:00,
2013-08-04 08:35:00,45.3,44.5,30.14,West,279,0.0,0.0,97,0.00,,---,0.00,VWS V14.01,2013-08-04 14:35:00,
2013-08-04 08:40:00,45.9,45.1,30.14,West,279,0.0,0.0,97,0.00,,---,0.00,VWS V14.01,2013-08-04 14:40:00,
2013-08-04 08:45:00,46.9,46.4,30.13,West,279,0.0,0.0,98,0.00,,---,0.00,VWS V14.01,2013-08-04 14:45:00,
2013-08-04 08:50:00,48.5,47.7,30.13,West,279,0.0,0.0,97,0.00,,---,0.00,VWS V14.01,2013-08-04 14:50:00,
2013-08-04 08:55:00,49.9,48.2,30.12,West,279,0.0,0.0,94,0.00,,---,0.00,VWS V14.01,2013-08-04 14:55:00,
2013-08-04 09:00:00,50.6,47.5,30.12,West,279,1.0,1.0,89,0.00,,---,0.00,VWS V14.01,2013-08-04 15:00:00,
2013-08-04 09:05:00,51.0,46.7,30.12,West,279,0.0,0.0,85,0.00,,---,0.00,VWS V14.01,2013-08-04 15:05:00,
2013-08-04 09:10:00,51.7,47.3,30.12,West,279,0.0,0.0,85,0.00,,---,0.00,VWS V14.01,2013-08-04 15:10:00,
2013-08-04 09:15:00,52.2,46.9,30.11,West,279,0.0,0.0,82,0.00,,---,0.00,VWS V14.01,2013-08-04 15:15:00,
2013-08-04 09:20:00,53.0,48.3,30.11,West,279,0.0,0.0,84,0.00,,---,0.00,VWS V14.01,2013-08-04 15:20:00,
2013-08-04 09:25:00,53.9,49.2,30.11,West,279,0.0,0.0,84,0.00,,---,0.00,VWS V14.01,2013-08-04 15:25:00,
2013-08-04 09:31:00,54.2,47.8,30.11,West,279,0.0,0.0,79,0.00,,---,0.00,VWS V14.01,2013-08-04 15:31:00,
2013-08-04 09:36:00,54.3,48.3,30.11,West,279,0.0,0.0,80,0.00,,---,0.00,VWS V14.01,2013-08-04 15:36:00,
2013-08-04 09:41:00,54.6,48.6,30.10,West,279,0.0,0.0,80,0.00,,---,0.00,VWS V14.01,2013-08-04 15:41:00,
2013-08-04 09:46:00,55.0,49.3,30.10,West,279,0.0,0.0,81,0.00,,---,0.00,VWS V14.01,2013-08-04 15:46:00,
2013-08-04 09:51:00,56.0,49.6,30.10,West,279,0.0,0.0,79,0.00,,---,0.00,VWS V14.01,2013-08-04 15:51:00,
2013-08-04 09:56:00,56.8,49.0,30.10,West,279,0.0,0.0,75,0.00,,---,0.00,VWS V14.01,2013-08-04 15:56:00,
2013-08-04 10:01:00,57.1,49.3,30.10,West,279,0.0,0.0,75,0.00,,---,0.00,VWS V14.01,2013-08-04 16:01:00,
2013-08-04 10:05:00,57.6,47.9,30.10,West,279,3.0,4.0,70,0.00,,---,0.00,VWS V14.01,2013-08-04 16:05:00,
2013-08-04 10:11:00,58.1,49.9,30.09,West,279,0.0,0.0,74,0.00,,---,0.00,VWS V14.01,2013-08-04 16:11:00,
2013-08-04 10:16:00,58.7,48.6,30.09,West,279,0.0,1.0,69,0.00,,---,0.00,VWS V14.01,2013-08-04 16:16:00,
2013-08-04 10:21:00,59.0,48.5,30.09,West,279,1.0,4.0,68,0.00,,---,0.00,VWS V14.01,2013-08-04 16:21:00,
2013-08-04 10:26:00,59.2,49.0,30.09,West,279,0.0,1.0,69,0.00,,---,0.00,VWS V14.01,2013-08-04 16:26:00,
2013-08-04 10:31:00,59.7,47.5,30.09,West,279,0.0,0.0,64,0.00,,---,0.00,VWS V14.01,2013-08-04 16:31:00,
2013-08-04 10:35:00,60.3,49.7,30.09,West,279,2.0,4.0,68,0.00,,---,0.00,VWS V14.01,2013-08-04 16:35:00,
2013-08-04 10:41:00,60.9,48.2,30.08,West,279,2.0,5.0,63,0.00,,---,0.00,VWS V14.01,2013-08-04 16:41:00,
2013-08-04 10:46:00,61.6,50.1,30.08,West,279,2.0,6.0,66,0.00,,---,0.00,VWS V14.01,2013-08-04 16:46:00,
2013-08-04 10:51:00,62.3,50.0,30.08,West,279,3.0,4.0,64,0.00,,---,0.00,VWS V14.01,2013-08-04 16:51:00,
2013-08-04 10:56:00,62.3,50.4,30.08,West,279,4.0,4.0,65,0.00,,---,0.00,VWS V14.01,2013-08-04 16:56:00,
2013-08-04 11:01:00,62.8,50.5,30.08,West,279,3.0,3.0,64,0.00,,---,0.00,VWS V14.01,2013-08-04 17:01:00,
2013-08-04 11:06:00,62.9,51.4,30.08,West,279,3.0,6.0,66,0.00,,---,0.00,VWS V14.01,2013-08-04 17:06:00,
2013-08-04 11:11:00,63.8,51.8,30.08,West,277,7.0,7.0,65,0.00,,---,0.00,VWS V14.01,2013-08-04 17:11:00,
2013-08-04 11:16:00,63.7,52.5,30.07,SE,127,6.0,6.0,67,0.00,,---,0.00,VWS V14.01,2013-08-04 17:16:00,
2013-08-04 11:22:00,64.0,49.8,30.07,South,172,8.0,8.0,60,0.00,,---,0.00,VWS V14.01,2013-08-04 17:22:00,
2013-08-04 11:27:00,63.9,48.4,30.07,SE,131,3.0,4.0,57,0.00,,---,0.00,VWS V14.01,2013-08-04 17:27:00,
2013-08-04 11:32:00,65.0,51.2,30.07,ESE,119,1.0,5.0,61,0.00,,---,0.00,VWS V14.01,2013-08-04 17:32:00,
2013-08-04 11:37:00,65.8,53.7,30.06,SSE,150,5.0,6.0,65,0.00,,---,0.00,VWS V14.01,2013-08-04 17:37:00,
2013-08-04 11:42:00,66.0,51.7,30.06,SSE,155,6.0,9.0,60,0.00,,---,0.00,VWS V14.01,2013-08-04 17:42:00,
2013-08-04 11:47:00,66.4,51.7,30.06,SE,125,7.0,7.0,59,0.00,,---,0.00,VWS V14.01,2013-08-04 17:47:00,
2013-08-04 11:52:00,66.2,51.5,30.06,SE,139,9.0,9.0,59,0.00,,---,0.00,VWS V14.01,2013-08-04 17:52:00,
2013-08-04 11:57:00,66.3,52.0,30.06,SSE,149,9.0,9.0,60,0.00,,---,0.00,VWS V14.01,2013-08-04 17:57:00,
2013-08-04 12:02:00,65.9,50.2,30.06,SE,132,3.0,4.0,57,0.00,,---,0.00,VWS V14.01,2013-08-04 18:02:00,
2013-08-04 12:07:00,65.9,52.1,30.05,SSE,153,8.0,8.0,61,0.00,,---,0.00,VWS V14.01,2013-08-04 18:07:00,
2013-08-04 12:12:00,66.2,51.0,30.05,SE,129,2.0,3.0,58,0.00,,---,0.00,VWS V14.01,2013-08-04 18:12:00,
2013-08-04 12:17:00,66.3,51.1,30.05,SE,128,0.0,0.0,58,0.00,,---,0.00,VWS V14.01,2013-08-04 18:17:00,
2013-08-04 12:22:00,66.7,51.9,30.05,SSE,152,6.0,6.0,59,0.00,,---,0.00,VWS V14.01,2013-08-04 18:22:00,
2013-08-04 12:27:00,66.7,53.3,30.05,SSE,157,6.0,7.0,62,0.00,,---,0.00,VWS V14.01,2013-08-04 18:27:00,
2013-08-04 12:32:00,66.6,49.0,30.05,SSE,157,3.0,3.0,53,0.00,,---,0.00,VWS V14.01,2013-08-04 18:32:00,
2013-08-04 12:37:00,67.8,53.0,30.05,SE,136,5.0,5.0,59,0.00,,---,0.00,VWS V14.01,2013-08-04 18:37:00,
2013-08-04 12:42:00,68.8,52.5,30.04,ESE,121,4.0,5.0,56,0.00,,---,0.00,VWS V14.01,2013-08-04 18:42:00,
2013-08-04 12:47:00,69.2,51.4,30.03,East,98,5.0,7.0,53,0.00,,---,0.00,VWS V14.01,2013-08-04 18:47:00,
2013-08-04 12:52:00,69.2,49.8,30.03,East,97,1.0,5.0,50,0.00,,---,0.00,VWS V14.01,2013-08-04 18:52:00,
2013-08-04 12:57:00,70.2,50.7,30.03,ESE,112,0.0,3.0,50,0.00,,---,0.00,VWS V14.01,2013-08-04 18:57:00,
2013-08-04 13:02:00,70.9,47.9,30.02,ESE,114,2.0,2.0,44,0.00,,---,0.00,VWS V14.01,2013-08-04 19:02:00,
2013-08-04 13:07:00,70.8,47.8,30.03,SSE,167,4.0,4.0,44,0.00,,---,0.00,VWS V14.01,2013-08-04 19:07:00,
2013-08-04 13:12:00,70.5,47.0,30.02,WNW,298,7.0,7.0,43,0.00,,---,0.00,VWS V14.01,2013-08-04 19:12:00,
2013-08-04 13:17:00,70.8,45.3,30.02,WNW,295,2.0,4.0,40,0.00,,---,0.00,VWS V14.01,2013-08-04 19:17:00,
2013-08-04 13:22:00,70.8,46.6,30.02,WNW,288,6.0,6.0,42,0.00,,---,0.00,VWS V14.01,2013-08-04 19:22:00,
2013-08-04 13:27:00,72.0,45.7,30.02,West,263,4.0,4.0,39,0.00,,---,0.00,VWS V14.01,2013-08-04 19:27:00,
2013-08-04 13:32:00,72.7,45.7,30.02,West,262,0.0,1.0,38,0.00,,---,0.00,VWS V14.01,2013-08-04 19:32:00,
2013-08-04 13:37:00,72.6,44.9,30.02,West,262,2.0,3.0,37,0.00,,---,0.00,VWS V14.01,2013-08-04 19:37:00,
2013-08-04 13:42:00,72.2,44.5,30.02,West,262,0.0,0.0,37,0.00,,---,0.00,VWS V14.01,2013-08-04 19:42:00,
2013-08-04 13:48:00,71.4,45.2,30.03,West,262,0.0,0.0,39,0.00,,---,0.00,VWS V14.01,2013-08-04 19:48:00,
2013-08-04 13:52:00,71.8,50.5,30.03,West,269,9.0,9.0,47,0.00,,---,0.00,VWS V14.01,2013-08-04 19:52:00,
2013-08-04 13:58:00,72.5,51.2,30.02,West,273,5.0,7.0,47,0.00,,---,0.00,VWS V14.01,2013-08-04 19:58:00,
2013-08-04 14:03:00,72.7,45.7,30.02,West,273,3.0,6.0,38,0.00,,---,0.00,VWS V14.01,2013-08-04 20:03:00,
2013-08-04 14:08:00,72.3,45.3,30.02,West,273,0.0,4.0,38,0.00,,---,0.00,VWS V14.01,2013-08-04 20:08:00,
2013-08-04 14:13:00,71.8,47.5,30.02,WNW,284,6.0,9.0,42,0.00,,---,0.00,VWS V14.01,2013-08-04 20:13:00,
2013-08-04 14:18:00,71.6,46.7,30.02,WNW,282,7.0,7.0,41,0.00,,---,0.00,VWS V14.01,2013-08-04 20:18:00,
2013-08-04 14:23:00,71.1,43.5,30.02,WNW,282,0.0,1.0,37,0.00,,---,0.00,VWS V14.01,2013-08-04 20:23:00,
2013-08-04 14:28:00,71.1,46.9,30.01,WNW,282,5.0,5.0,42,0.00,,---,0.00,VWS V14.01,2013-08-04 20:28:00,
2013-08-04 14:33:00,71.7,46.8,30.01,WNW,282,2.0,4.0,41,0.00,,---,0.00,VWS V14.01,2013-08-04 20:33:00,
2013-08-04 14:38:00,71.8,46.2,30.01,WNW,282,3.0,4.0,40,0.00,,---,0.00,VWS V14.01,2013-08-04 20:38:00,
2013-08-04 14:43:00,71.4,46.5,30.01,West,277,10.0,10.0,41,0.00,,---,0.00,VWS V14.01,2013-08-04 20:43:00,
2013-08-04 14:48:00,71.4,47.8,30.00,West,267,9.0,9.0,43,0.00,,---,0.00,VWS V14.01,2013-08-04 20:48:00,
2013-08-04 14:53:00,70.9,46.0,30.00,West,262,4.0,7.0,41,0.00,,---,0.00,VWS V14.01,2013-08-04 20:53:00,
2013-08-04 14:58:00,70.3,46.8,30.01,West,265,4.0,8.0,43,0.00,,---,0.00,VWS V14.01,2013-08-04 20:58:00,
2013-08-04 15:03:00,69.6,47.9,30.00,West,265,3.0,7.0,46,0.00,,---,0.00,VWS V14.01,2013-08-04 21:03:00,
2013-08-04 15:08:00,69.2,48.1,30.00,West,265,5.0,6.0,47,0.00,,---,0.00,VWS V14.01,2013-08-04 21:08:00,
2013-08-04 15:13:00,69.1,46.3,30.01,West,265,3.0,5.0,44,0.00,,---,0.00,VWS V14.01,2013-08-04 21:13:00,
2013-08-04 15:18:00,69.2,47.0,30.01,WSW,255,0.0,4.0,45,0.00,,---,0.00,VWS V14.01,2013-08-04 21:18:00,
2013-08-04 15:23:00,69.5,45.4,30.01,SW,220,9.0,12.0,42,0.00,,---,0.00,VWS V14.01,2013-08-04 21:23:00,
2013-08-04 15:28:00,69.6,46.1,30.01,SW,231,10.0,14.0,43,0.00,,---,0.00,VWS V14.01,2013-08-04 21:28:00,
2013-08-04 15:33:00,69.7,47.4,30.01,South,176,12.0,14.0,45,0.00,,---,0.00,VWS V14.01,2013-08-04 21:33:00,
2013-08-04 15:38:00,70.6,50.0,30.01,South,188,10.0,15.0,48,0.00,,---,0.00,VWS V14.01,2013-08-04 21:38:00,
2013-08-04 15:43:00,70.9,50.2,30.01,SE,146,11.0,18.0,48,0.00,,---,0.00,VWS V14.01,2013-08-04 21:43:00,
2013-08-04 15:48:00,70.1,50.1,30.01,SE,129,11.0,14.0,49,0.00,,---,0.00,VWS V14.01,2013-08-04 21:48:00,
2013-08-04 15:49:00,69.6,49.1,30.01,East,88,17.0,19.0,48,0.00,,---,0.00,VWS V14.01,2013-08-04 21:49:00,
2013-08-04 15:54:00,68.0,46.5,30.01,ENE,76,13.0,17.0,46,0.00,,---,0.00,VWS V14.01,2013-08-04 21:54:00,
2013-08-04 15:59:00,66.5,45.1,30.02,ESE,115,15.0,22.0,46,0.00,,---,0.00,VWS V14.01,2013-08-04 21:59:00,
2013-08-04 16:04:00,64.9,44.8,30.02,East,96,17.0,17.0,48,0.00,,---,0.00,VWS V14.01,2013-08-04 22:04:00,
2013-08-04 16:09:00,63.7,42.5,30.03,East,93,11.0,13.0,46,0.00,,---,0.00,VWS V14.01,2013-08-04 22:09:00,
2013-08-04 16:14:00,63.1,43.1,30.04,ESE,107,9.0,13.0,48,0.00,,---,0.00,VWS V14.01,2013-08-04 22:14:00,
2013-08-04 16:19:00,62.8,42.3,30.04,East,97,6.0,10.0,47,0.00,,---,0.00,VWS V14.01,2013-08-04 22:19:00,
2013-08-04 16:24:00,62.6,43.2,30.04,East,90,8.0,9.0,49,0.00,,---,0.00,VWS V14.01,2013-08-04 22:24:00,
2013-08-04 16:29:00,62.4,43.0,30.05,East,99,6.0,10.0,49,0.00,,---,0.00,VWS V14.01,2013-08-04 22:29:00,
2013-08-04 16:34:00,62.2,43.9,30.05,SE,127,3.0,3.0,51,0.00,,---,0.00,VWS V14.01,2013-08-04 22:34:00,
2013-08-04 16:39:00,61.9,46.5,30.06,SE,136,0.0,1.0,57,0.00,,---,0.00,VWS V14.01,2013-08-04 22:39:00,
2013-08-04 16:44:00,61.5,47.5,30.07,South,171,4.0,5.0,60,0.00,,---,0.00,VWS V14.01,2013-08-04 22:44:00,
2013-08-04 16:49:00,61.0,46.6,30.07,South,173,0.0,0.0,59,0.00,,---,0.00,VWS V14.01,2013-08-04 22:49:00,
2013-08-04 16:54:00,60.4,47.8,30.07,NE,39,8.0,8.0,63,0.00,,---,0.00,VWS V14.01,2013-08-04 22:54:00,
2013-08-04 16:59:00,59.1,48.6,30.07,NNE,32,7.0,9.0,68,0.00,,---,0.00,VWS V14.01,2013-08-04 22:59:00,
2013-08-04 17:04:00,58.2,48.5,30.07,NNE,31,0.0,0.0,70,0.00,,---,0.00,VWS V14.01,2013-08-04 23:04:00,
2013-08-04 17:09:00,58.0,48.7,30.07,NE,38,1.0,2.0,71,0.01,,---,0.01,VWS V14.01,2013-08-04 23:09:00,
2013-08-04 17:14:00,57.8,48.5,30.06,NE,40,2.0,3.0,71,0.01,,---,0.01,VWS V14.01,2013-08-04 23:14:00,
2013-08-04 17:19:00,57.6,48.7,30.06,WSW,242,5.0,5.0,72,0.01,,---,0.01,VWS V14.01,2013-08-04 23:19:00,
2013-08-04 17:24:00,57.4,50.3,30.08,WSW,246,8.0,9.0,77,0.01,,---,0.01,VWS V14.01,2013-08-04 23:24:00,
2013-08-04 17:29:00,57.1,50.3,30.09,West,263,6.0,6.0,78,0.01,,---,0.01,VWS V14.01,2013-08-04 23:29:00,
2013-08-04 17:34:00,56.8,48.6,30.10,West,273,8.0,8.0,74,0.01,,---,0.01,VWS V14.01,2013-08-04 23:34:00,
2013-08-04 17:39:00,56.7,48.2,30.09,WNW,301,9.0,10.0,73,0.01,,---,0.01,VWS V14.01,2013-08-04 23:39:00,
2013-08-04 17:44:00,56.6,48.8,30.09,NW,309,7.0,7.0,75,0.01,,---,0.01,VWS V14.01,2013-08-04 23:44:00,
2013-08-04 17:49:00,56.4,49.3,30.09,WNW,303,5.0,8.0,77,0.01,,---,0.01,VWS V14.01,2013-08-04 23:49:00,
2013-08-04 17:54:00,56.3,49.5,30.10,NW,306,5.0,6.0,78,0.01,,---,0.01,VWS V14.01,2013-08-04 23:54:00,
2013-08-04 17:59:00,56.2,50.1,30.08,NW,313,7.0,9.0,80,0.01,,---,0.01,VWS V14.01,2013-08-04 23:59:00,
2013-08-04 18:04:00,56.2,50.1,30.08,NW,315,7.0,11.0,80,0.01,,---,0.01,VWS V14.01,2013-08-05 00:04:00,
2013-08-04 18:09:00,56.2,50.5,30.08,NNW,329,8.0,10.0,81,0.00,,---,0.01,VWS V14.01,2013-08-05 00:09:00,
2013-08-04 18:14:00,56.3,49.9,30.08,NNW,327,8.0,8.0,79,0.00,,---,0.01,VWS V14.01,2013-08-05 00:14:00,
2013-08-04 18:19:00,56.4,50.3,30.09,NW,324,7.0,8.0,80,0.00,,---,0.01,VWS V14.01,2013-08-05 00:19:00,
2013-08-04 18:24:00,56.6,50.5,30.08,NW,323,3.0,4.0,80,0.00,,---,0.01,VWS V14.01,2013-08-05 00:24:00,
2013-08-04 18:29:00,56.6,49.5,30.08,NW,309,4.0,5.0,77,0.00,,---,0.01,VWS V14.01,2013-08-05 00:29:00,
2013-08-04 18:34:00,56.6,49.5,30.08,NW,304,5.0,6.0,77,0.00,,---,0.01,VWS V14.01,2013-08-05 00:34:00,
2013-08-04 18:39:00,56.5,49.4,30.07,WNW,301,6.0,7.0,77,0.00,,---,0.01,VWS V14.01,2013-08-05 00:39:00,
2013-08-04 18:45:00,56.4,49.3,30.07,WNW,292,6.0,7.0,77,0.00,,---,0.01,VWS V14.01,2013-08-05 00:45:00,
2013-08-04 18:50:00,56.2,50.1,30.07,WNW,291,6.0,7.0,80,0.00,,---,0.01,VWS V14.01,2013-08-05 00:50:00,
2013-08-04 18:55:00,55.8,48.7,30.07,WSW,249,10.0,10.0,77,0.00,,---,0.01,VWS V14.01,2013-08-05 00:55:00,
2013-08-04 19:00:00,55.5,48.4,30.07,WSW,247,13.0,15.0,77,0.00,,---,0.01,VWS V14.01,2013-08-05 01:00:00,
2013-08-04 19:04:00,55.2,48.8,30.07,WSW,250,5.0,8.0,79,0.00,,---,0.01,VWS V14.01,2013-08-05 01:04:00,
2013-08-04 19:09:00,55.0,49.0,30.06,WSW,250,5.0,7.0,80,0.00,,---,0.01,VWS V14.01,2013-08-05 01:09:00,
2013-08-04 19:14:00,54.7,48.7,30.07,WSW,249,8.0,11.0,80,0.00,,---,0.01,VWS V14.01,2013-08-05 01:14:00,
2013-08-04 19:20:00,54.5,48.1,30.07,WSW,250,6.0,6.0,79,0.00,,---,0.01,VWS V14.01,2013-08-05 01:20:00,
2013-08-04 19:25:00,54.5,48.8,30.06,WSW,250,4.0,4.0,81,0.00,,---,0.01,VWS V14.01,2013-08-05 01:25:00,
2013-08-04 19:30:00,54.6,49.2,30.07,WSW,250,2.0,3.0,82,0.00,,---,0.01,VWS V14.01,2013-08-05 01:30:00,
2013-08-04 19:35:00,54.6,48.6,30.06,WSW,250,0.0,0.0,80,0.00,,---,0.01,VWS V14.01,2013-08-05 01:35:00,
2013-08-04 19:40:00,54.5,48.1,30.06,WSW,250,1.0,3.0,79,0.00,,---,0.01,VWS V14.01,2013-08-05 01:40:00,
2013-08-04 19:45:00,54.4,48.0,30.05,WSW,250,2.0,5.0,79,0.00,,---,0.01,VWS V14.01,2013-08-05 01:45:00,
2013-08-04 19:50:00,54.4,47.7,30.05,WSW,250,3.0,4.0,78,0.00,,---,0.01,VWS V14.01,2013-08-05 01:50:00,
2013-08-04 19:55:00,54.4,48.0,30.04,WSW,250,4.0,4.0,79,0.00,,---,0.01,VWS V14.01,2013-08-05 01:55:00,
2013-08-04 19:59:00,54.3,48.3,30.05,WSW,250,2.0,3.0,80,0.00,,---,0.01,VWS V14.01,2013-08-05 01:59:00,
2013-08-04 20:05:00,54.3,48.6,30.05,WSW,250,0.0,0.0,81,0.00,,---,0.01,VWS V14.01,2013-08-05 02:05:00,
2013-08-04 20:10:00,54.1,48.4,30.05,WSW,250,3.0,3.0,81,0.00,,---,0.01,VWS V14.01,2013-08-05 02:10:00,
2013-08-04 20:15:00,54.0,48.0,30.06,WSW,250,0.0,0.0,80,0.00,,---,0.01,VWS V14.01,2013-08-05 02:15:00,
2013-08-04 20:19:00,54.0,48.3,30.05,WSW,250,3.0,3.0,81,0.00,,---,0.01,VWS V14.01,2013-08-05 02:19:00,
2013-08-04 20:25:00,53.8,48.1,30.05,WSW,250,0.0,1.0,81,0.00,,---,0.01,VWS V14.01,2013-08-05 02:25:00,
2013-08-04 20:30:00,53.6,48.2,30.06,WSW,250,2.0,3.0,82,0.00,,---,0.01,VWS V14.01,2013-08-05 02:30:00,
2013-08-04 20:35:00,53.3,48.0,30.06,WSW,250,1.0,3.0,82,0.00,,---,0.01,VWS V14.01,2013-08-05 02:35:00,
2013-08-04 20:40:00,53.3,48.3,30.06,WSW,250,0.0,0.0,83,0.00,,---,0.01,VWS V14.01,2013-08-05 02:40:00,
2013-08-04 20:45:00,53.3,48.3,30.06,WSW,250,0.0,0.0,83,0.00,,---,0.01,VWS V14.01,2013-08-05 02:45:00,
2013-08-04 20:50:00,53.3,48.3,30.06,WSW,250,0.0,0.0,83,0.00,,---,0.01,VWS V14.01,2013-08-05 02:50:00,
2013-08-04 20:55:00,53.3,48.3,30.06,WSW,250,0.0,2.0,83,0.00,,---,0.01,VWS V14.01,2013-08-05 02:55:00,
2013-08-04 21:00:00,53.2,48.5,30.06,WSW,250,2.0,4.0,84,0.00,,---,0.01,VWS V14.01,2013-08-05 03:00:00,
2013-08-04 21:05:00,53.1,48.4,30.06,WSW,250,5.0,5.0,84,0.00,,---,0.01,VWS V14.01,2013-08-05 03:05:00,
2013-08-04 21:10:00,52.9,48.5,30.06,WSW,250,1.0,3.0,85,0.00,,---,0.01,VWS V14.01,2013-08-05 03:10:00,
2013-08-04 21:15:00,52.8,48.7,30.06,WSW,250,0.0,0.0,86,0.00,,---,0.01,VWS V14.01,2013-08-05 03:15:00,
2013-08-04 21:20:00,52.6,48.5,30.07,WSW,250,2.0,3.0,86,0.00,,---,0.01,VWS V14.01,2013-08-05 03:20:00,
2013-08-04 21:25:00,52.3,47.9,30.07,WSW,250,2.0,2.0,85,0.00,,---,0.01,VWS V14.01,2013-08-05 03:25:00,
2013-08-04 21:30:00,52.1,48.0,30.07,WSW,250,0.0,0.0,86,0.00,,---,0.01,VWS V14.01,2013-08-05 03:30:00,
2013-08-04 21:35:00,52.0,47.6,30.07,WSW,250,0.0,0.0,85,0.00,,---,0.01,VWS V14.01,2013-08-05 03:35:00,
2013-08-04 21:40:00,51.8,47.4,30.07,WSW,250,2.0,3.0,85,0.00,,---,0.01,VWS V14.01,2013-08-05 03:40:00,
2013-08-04 21:45:00,51.3,47.0,30.07,WSW,250,3.0,3.0,85,0.00,,---,0.01,VWS V14.01,2013-08-05 03:45:00,
2013-08-04 21:50:00,50.8,46.8,30.07,WSW,250,3.0,3.0,86,0.00,,---,0.01,VWS V14.01,2013-08-05 03:50:00,
2013-08-04 21:55:00,50.5,46.8,30.08,WSW,250,5.0,5.0,87,0.00,,---,0.01,VWS V14.01,2013-08-05 03:55:00,
2013-08-04 22:00:00,50.2,46.5,30.08,WSW,250,6.0,6.0,87,0.00,,---,0.01,VWS V14.01,2013-08-05 04:00:00,
2013-08-04 22:01:00,50.2,46.5,30.08,WSW,250,5.0,6.0,87,0.00,,---,0.01,VWS V14.01,2013-08-05 04:01:00,
2013-08-04 22:02:00,50.2,46.8,30.08,WSW,250,5.0,6.0,88,0.00,,---,0.01,VWS V14.01,2013-08-05 04:02:00,
2013-08-04 22:07:00,50.0,46.6,30.08,WSW,250,4.0,5.0,88,0.00,,---,0.01,VWS V14.01,2013-08-05 04:07:00,
2013-08-04 22:12:00,49.9,46.5,30.08,WSW,250,4.0,4.0,88,0.00,,---,0.01,VWS V14.01,2013-08-05 04:12:00,
2013-08-04 22:17:00,49.6,46.2,30.08,WSW,250,3.0,4.0,88,0.00,,---,0.01,VWS V14.01,2013-08-05 04:17:00,
2013-08-04 22:22:00,49.3,45.9,30.09,WSW,250,3.0,4.0,88,0.00,,---,0.01,VWS V14.01,2013-08-05 04:22:00,
2013-08-04 22:27:00,49.2,46.1,30.08,WSW,250,3.0,3.0,89,0.00,,---,0.01,VWS V14.01,2013-08-05 04:27:00,
2013-08-04 22:32:00,49.1,46.0,30.08,WSW,250,3.0,4.0,89,0.00,,---,0.01,VWS V14.01,2013-08-05 04:32:00,
2013-08-04 22:37:00,49.2,46.4,30.08,WSW,250,0.0,0.0,90,0.00,,---,0.01,VWS V14.01,2013-08-05 04:37:00,
2013-08-04 22:42:00,49.2,46.4,30.08,WSW,250,0.0,0.0,90,0.00,,---,0.01,VWS V14.01,2013-08-05 04:42:00,
2013-08-04 22:47:00,49.3,46.5,30.08,WSW,250,5.0,6.0,90,0.00,,---,0.01,VWS V14.01,2013-08-05 04:47:00,
2013-08-04 22:52:00,49.1,46.0,30.08,WSW,250,5.0,5.0,89,0.00,,---,0.01,VWS V14.01,2013-08-05 04:52:00,
2013-08-04 22:57:00,48.9,46.1,30.08,WSW,250,6.0,7.0,90,0.00,,---,0.01,VWS V14.01,2013-08-05 04:57:00,
2013-08-04 23:02:00,48.9,46.1,30.08,WSW,250,3.0,5.0,90,0.00,,---,0.01,VWS V14.01,2013-08-05 05:02:00,
2013-08-04 23:07:00,48.9,46.1,30.08,WSW,250,5.0,5.0,90,0.00,,---,0.01,VWS V14.01,2013-08-05 05:07:00,
2013-08-04 23:12:00,48.9,46.1,30.08,WSW,250,3.0,5.0,90,0.00,,---,0.01,VWS V14.01,2013-08-05 05:12:00,
2013-08-04 23:17:00,49.0,46.5,30.08,WSW,250,0.0,0.0,91,0.00,,---,0.01,VWS V14.01,2013-08-05 05:17:00,
2013-08-04 23:22:00,49.1,46.6,30.08,WSW,250,0.0,0.0,91,0.00,,---,0.01,VWS V14.01,2013-08-05 05:22:00,
2013-08-04 23:27:00,49.0,46.5,30.09,WSW,250,0.0,0.0,91,0.00,,---,0.01,VWS V14.01,2013-08-05 05:27:00,
2013-08-04 23:32:00,49.0,46.5,30.08,WSW,250,4.0,4.0,91,0.00,,---,0.01,VWS V14.01,2013-08-05 05:32:00,
2013-08-04 23:37:00,49.0,46.5,30.08,WSW,250,0.0,1.0,91,0.00,,---,0.01,VWS V14.01,2013-08-05 05:37:00,
2013-08-04 23:42:00,49.0,46.2,30.07,WSW,250,1.0,4.0,90,0.00,,---,0.01,VWS V14.01,2013-08-05 05:42:00,
2013-08-04 23:47:00,49.0,46.2,30.08,WSW,250,0.0,0.0,90,0.00,,---,0.01,VWS V14.01,2013-08-05 05:47:00,
2013-08-04 23:52:00,49.0,46.2,30.08,WSW,250,0.0,0.0,90,0.00,,---,0.01,VWS V14.01,2013-08-05 05:52:00,
2013-08-04 23:57:00,48.5,45.4,30.08,WSW,250,2.0,2.0,89,0.00,,---,0.01,VWS V14.01,2013-08-05 05:57:00,